Time,TemperatureF,DewpointF,PressureIn,WindDirection,WindDirectionDegrees,WindSpeedMPH,WindSpeedGustMPH,Humidity,HourlyPrecipIn,Conditions,Clouds,dailyrainin,SoftwareType,DateUTC
2013-03-03 00:02:00,29.0,18.0,-100.00,East,95,8.0,14.0,61,-99.99,,,-99.99,,2013-03-03 05:02:00,
2013-03-03 00:12:00,29.0,18.0,-100.00,East,90,5.0,12.0,61,-99.99,,,-99.99,,2013-03-03 05:12:00,
2013-03-03 00:22:00,29.0,18.0,-100.00,East,90,5.0,12.0,61,-99.99,,,-99.99,,2013-03-03 05:22:00,
2013-03-03 00:32:00,30.0,18.0,-100.00,East,85,7.0,12.0,61,-99.99,,,-99.99,,2013-03-03 05:32:00,
2013-03-03 00:42:00,30.0,18.0,-100.00,ESE,105,7.0,14.0,61,-99.99,,,-99.99,,2013-03-03 05:42:00,
2013-03-03 00:52:00,30.0,18.0,-100.00,ESE,105,7.0,14.0,61,-99.99,,,-99.99,,2013-03-03 05:52:00,
2013-03-03 01:02:00,30.0,18.0,-100.00,ESE,105,6.0,12.0,60,-99.99,,,-99.99,,2013-03-03 06:02:00,
2013-03-03 01:11:00,30.0,18.0,-100.00,ESE,110,10.0,14.0,60,-99.99,,,-99.99,,2013-03-03 06:11:00,
2013-03-03 01:22:00,30.0,18.0,-100.00,ESE,110,10.0,14.0,60,-99.99,,,-99.99,,2013-03-03 06:22:00,
2013-03-03 01:32:00,30.0,18.0,-100.00,ESE,105,10.0,13.0,61,-99.99,,,-99.99,,2013-03-03 06:32:00,
2013-03-03 01:42:00,30.0,18.0,-100.00,ESE,105,10.0,14.0,61,-99.99,,,-99.99,,2013-03-03 06:42:00,
2013-03-03 01:52:00,29.0,17.0,-100.00,ESE,115,10.0,15.0,60,-99.99,,,-99.99,,2013-03-03 06:52:00,
2013-03-03 02:01:00,29.0,17.0,-100.00,ESE,115,10.0,15.0,60,-99.99,,,-99.99,,2013-03-03 07:01:00,
2013-03-03 02:11:00,29.0,17.0,-100.00,ESE,115,10.0,17.0,60,-99.99,,,-99.99,,2013-03-03 07:11:00,
2013-03-03 02:21:00,29.0,17.0,-100.00,ESE,115,10.0,17.0,60,-99.99,,,-99.99,,2013-03-03 07:21:00,
2013-03-03 02:32:00,29.0,17.0,-100.00,East,95,10.0,20.0,59,-99.99,,,-99.99,,2013-03-03 07:32:00,
2013-03-03 02:42:00,29.0,17.0,-100.00,ESE,110,13.0,19.0,59,-99.99,,,-99.99,,2013-03-03 07:42:00,
2013-03-03 02:51:00,29.0,17.0,-100.00,ESE,110,13.0,19.0,59,-99.99,,,-99.99,,2013-03-03 07:51:00,
2013-03-03 03:01:00,29.0,17.0,-100.00,ESE,115,7.0,15.0,59,-99.99,,,-99.99,,2013-03-03 08:01:00,
2013-03-03 03:11:00,29.0,16.0,-100.00,East,95,9.0,14.0,59,-99.99,,,-99.99,,2013-03-03 08:11:00,
2013-03-03 03:21:00,29.0,16.0,-100.00,East,95,9.0,14.0,59,-99.99,,,-99.99,,2013-03-03 08:21:00,
2013-03-03 03:32:00,28.0,16.0,-100.00,ESE,105,7.0,12.0,60,-99.99,,,-99.99,,2013-03-03 08:32:00,
2013-03-03 03:42:00,28.0,16.0,-100.00,East,90,9.0,12.0,61,-99.99,,,-99.99,,2013-03-03 08:42:00,
2013-03-03 03:53:00,28.0,16.0,-100.00,East,100,8.0,14.0,61,-99.99,,,-99.99,,2013-03-03 08:53:00,
2013-03-03 04:02:00,28.0,16.0,-100.00,East,100,8.0,14.0,61,-99.99,,,-99.99,,2013-03-03 09:02:00,
2013-03-03 04:12:00,28.0,16.0,-100.00,East,95,9.0,14.0,62,-99.99,,,-99.99,,2013-03-03 09:12:00,
2013-03-03 04:21:00,28.0,16.0,-100.00,East,95,9.0,14.0,62,-99.99,,,-99.99,,2013-03-03 09:21:00,
2013-03-03 04:32:00,28.0,17.0,-100.00,East,100,12.0,17.0,62,-99.99,,,-99.99,,2013-03-03 09:32:00,
2013-03-03 04:42:00,28.0,17.0,-100.00,East,95,8.0,14.0,62,-99.99,,,-99.99,,2013-03-03 09:42:00,
2013-03-03 04:51:00,28.0,17.0,-100.00,East,95,8.0,14.0,62,-99.99,,,-99.99,,2013-03-03 09:51:00,
2013-03-03 05:01:00,28.0,16.0,-100.00,East,90,10.0,12.0,62,-99.99,,,-99.99,,2013-03-03 10:01:00,
2013-03-03 05:12:00,27.0,16.0,-100.00,East,95,8.0,12.0,61,-99.99,,,-99.99,,2013-03-03 10:12:00,
2013-03-03 05:21:00,27.0,16.0,-100.00,East,95,8.0,12.0,61,-99.99,,,-99.99,,2013-03-03 10:21:00,
2013-03-03 05:32:00,27.0,16.0,-100.00,East,85,6.0,12.0,61,-99.99,,,-99.99,,2013-03-03 10:32:00,
2013-03-03 05:42:00,27.0,16.0,-100.00,East,85,6.0,11.0,62,-99.99,,,-99.99,,2013-03-03 10:42:00,
2013-03-03 05:52:00,27.0,16.0,-100.00,East,85,6.0,10.0,62,-99.99,,,-99.99,,2013-03-03 10:52:00,
2013-03-03 06:02:00,27.0,16.0,-100.00,East,85,6.0,10.0,62,-99.99,,,-99.99,,2013-03-03 11:02:00,
2013-03-03 06:11:00,27.0,16.0,-100.00,NE,55,2.0,8.0,62,-99.99,,,-99.99,,2013-03-03 11:11:00,
2013-03-03 06:22:00,27.0,16.0,-100.00,NE,55,2.0,8.0,62,-99.99,,,-99.99,,2013-03-03 11:22:00,
2013-03-03 06:32:00,27.0,16.0,-100.00,ENE,65,3.0,7.0,63,-99.99,,,-99.99,,2013-03-03 11:32:00,
2013-03-03 06:42:00,27.0,16.0,-100.00,East,80,3.0,7.0,63,-99.99,,,-99.99,,2013-03-03 11:42:00,
2013-03-03 06:52:00,27.0,16.0,-100.00,East,85,7.0,12.0,64,-99.99,,,-99.99,,2013-03-03 11:52:00,
2013-03-03 07:02:00,27.0,16.0,-100.00,East,85,7.0,12.0,64,-99.99,,,-99.99,,2013-03-03 12:02:00,
2013-03-03 07:11:00,27.0,17.0,-100.00,East,80,6.0,13.0,64,-99.99,,,-99.99,,2013-03-03 12:11:00,
2013-03-03 07:22:00,27.0,17.0,-100.00,East,80,6.0,13.0,64,-99.99,,,-99.99,,2013-03-03 12:22:00,
2013-03-03 07:32:00,27.0,17.0,-100.00,ENE,75,6.0,11.0,64,-99.99,,,-99.99,,2013-03-03 12:32:00,
2013-03-03 07:43:00,27.0,17.0,-100.00,East,95,11.0,14.0,64,-99.99,,,-99.99,,2013-03-03 12:43:00,
2013-03-03 07:52:00,27.0,17.0,-100.00,East,95,11.0,14.0,64,-99.99,,,-99.99,,2013-03-03 12:52:00,
2013-03-03 08:11:00,28.0,17.0,-100.00,East,90,8.0,13.0,64,-99.99,,,-99.99,,2013-03-03 13:11:00,
2013-03-03 08:22:00,28.0,17.0,-100.00,East,90,8.0,13.0,64,-99.99,,,-99.99,,2013-03-03 13:22:00,
2013-03-03 08:32:00,28.0,17.0,-100.00,ESE,105,10.0,14.0,63,-99.99,,,-99.99,,2013-03-03 13:32:00,
2013-03-03 08:42:00,29.0,17.0,-100.00,East,95,9.0,15.0,62,-99.99,,,-99.99,,2013-03-03 13:42:00,
2013-03-03 08:52:00,29.0,17.0,-100.00,East,95,9.0,15.0,62,-99.99,,,-99.99,,2013-03-03 13:52:00,
2013-03-03 09:02:00,29.0,18.0,-100.00,SE,130,6.0,17.0,62,-99.99,,,-99.99,,2013-03-03 14:02:00,
2013-03-03 09:11:00,29.0,17.0,-100.00,SE,125,12.0,21.0,59,-99.99,,,-99.99,,2013-03-03 14:11:00,
2013-03-03 09:22:00,29.0,17.0,-100.00,SE,125,12.0,21.0,59,-99.99,,,-99.99,,2013-03-03 14:22:00,
2013-03-03 09:32:00,30.0,17.0,-100.00,ESE,115,7.0,18.0,58,-99.99,,,-99.99,,2013-03-03 14:32:00,
2013-03-03 09:42:00,30.0,16.0,-100.00,ESE,120,7.0,22.0,56,-99.99,,,-99.99,,2013-03-03 14:42:00,
2013-03-03 09:52:00,30.0,16.0,-100.00,ESE,120,7.0,22.0,56,-99.99,,,-99.99,,2013-03-03 14:52:00,
2013-03-03 10:02:00,31.0,16.0,-100.00,SE,125,9.0,19.0,54,-99.99,,,-99.99,,2013-03-03 15:02:00,
2013-03-03 10:11:00,31.0,16.0,-100.00,SSE,155,10.0,14.0,53,-99.99,,,-99.99,,2013-03-03 15:11:00,
2013-03-03 10:22:00,31.0,16.0,-100.00,SSE,155,10.0,14.0,53,-99.99,,,-99.99,,2013-03-03 15:22:00,
2013-03-03 10:32:00,31.0,16.0,-100.00,SSE,150,8.0,16.0,52,-99.99,,,-99.99,,2013-03-03 15:32:00,
2013-03-03 10:42:00,31.0,16.0,-100.00,SE,135,5.0,14.0,52,-99.99,,,-99.99,,2013-03-03 15:42:00,
2013-03-03 10:52:00,31.0,16.0,-100.00,SE,135,5.0,14.0,52,-99.99,,,-99.99,,2013-03-03 15:52:00,
2013-03-03 11:02:00,33.0,17.0,-100.00,ESE,115,7.0,16.0,51,-99.99,,,-99.99,,2013-03-03 16:02:00,
2013-03-03 11:12:00,32.0,16.0,-100.00,SSE,155,9.0,13.0,51,-99.99,,,-99.99,,2013-03-03 16:12:00,
2013-03-03 11:22:00,32.0,16.0,-100.00,SSE,155,9.0,13.0,51,-99.99,,,-99.99,,2013-03-03 16:22:00,
2013-03-03 11:32:00,33.0,17.0,-100.00,SE,130,9.0,18.0,50,-99.99,,,-99.99,,2013-03-03 16:32:00,
2013-03-03 11:42:00,33.0,16.0,-100.00,East,100,13.0,20.0,49,-99.99,,,-99.99,,2013-03-03 16:42:00,
2013-03-03 11:52:00,33.0,16.0,-100.00,East,100,13.0,20.0,49,-99.99,,,-99.99,,2013-03-03 16:52:00,
2013-03-03 12:01:00,34.0,16.0,-100.00,ESE,115,12.0,23.0,48,-99.99,,,-99.99,,2013-03-03 17:01:00,
2013-03-03 12:12:00,35.0,17.0,-100.00,ESE,105,14.0,19.0,48,-99.99,,,-99.99,,2013-03-03 17:12:00,
2013-03-03 12:22:00,35.0,17.0,-100.00,ESE,105,14.0,19.0,48,-99.99,,,-99.99,,2013-03-03 17:22:00,
2013-03-03 12:32:00,34.0,16.0,-100.00,East,100,18.0,25.0,48,-99.99,,,-99.99,,2013-03-03 17:32:00,
2013-03-03 12:42:00,33.0,16.0,-100.00,East,90,17.0,22.0,49,-99.99,,,-99.99,,2013-03-03 17:42:00,
2013-03-03 12:52:00,33.0,16.0,-100.00,East,90,17.0,22.0,49,-99.99,,,-99.99,,2013-03-03 17:52:00,
2013-03-03 13:02:00,34.0,17.0,-100.00,ESE,115,14.0,21.0,49,-99.99,,,-99.99,,2013-03-03 18:02:00,
2013-03-03 13:11:00,33.0,16.0,-100.00,ESE,115,11.0,25.0,49,-99.99,,,-99.99,,2013-03-03 18:11:00,
2013-03-03 13:22:00,33.0,16.0,-100.00,ESE,115,11.0,25.0,49,-99.99,,,-99.99,,2013-03-03 18:22:00,
2013-03-03 13:32:00,35.0,17.0,-100.00,East,95,7.0,14.0,48,-99.99,,,-99.99,,2013-03-03 18:32:00,
2013-03-03 13:42:00,35.0,17.0,-100.00,ESE,110,9.0,15.0,48,-99.99,,,-99.99,,2013-03-03 18:42:00,
2013-03-03 13:52:00,35.0,17.0,-100.00,ESE,110,9.0,15.0,48,-99.99,,,-99.99,,2013-03-03 18:52:00,
2013-03-03 14:02:00,35.0,17.0,-100.00,East,100,9.0,19.0,47,-99.99,,,-99.99,,2013-03-03 19:02:00,
2013-03-03 14:11:00,36.0,17.0,-100.00,ESE,115,10.0,19.0,46,-99.99,,,-99.99,,2013-03-03 19:11:00,
2013-03-03 14:22:00,36.0,17.0,-100.00,ESE,115,10.0,19.0,46,-99.99,,,-99.99,,2013-03-03 19:22:00,
2013-03-03 14:32:00,37.0,17.0,-100.00,ESE,110,11.0,18.0,45,-99.99,,,-99.99,,2013-03-03 19:32:00,
2013-03-03 14:42:00,36.0,17.0,-100.00,East,95,20.0,25.0,45,-99.99,,,-99.99,,2013-03-03 19:42:00,
2013-03-03 14:52:00,36.0,17.0,-100.00,East,95,20.0,25.0,45,-99.99,,,-99.99,,2013-03-03 19:52:00,
2013-03-03 15:02:00,37.0,18.0,-100.00,East,100,9.0,18.0,45,-99.99,,,-99.99,,2013-03-03 20:02:00,
2013-03-03 15:12:00,37.0,17.0,-100.00,East,95,15.0,23.0,43,-99.99,,,-99.99,,2013-03-03 20:12:00,
2013-03-03 15:22:00,37.0,17.0,-100.00,East,95,15.0,23.0,43,-99.99,,,-99.99,,2013-03-03 20:22:00,
2013-03-03 15:32:00,36.0,17.0,-100.00,ESE,105,14.0,24.0,44,-99.99,,,-99.99,,2013-03-03 20:32:00,
2013-03-03 15:42:00,36.0,17.0,-100.00,ESE,105,12.0,18.0,45,-99.99,,,-99.99,,2013-03-03 20:42:00,
2013-03-03 15:52:00,36.0,17.0,-100.00,ESE,105,12.0,18.0,45,-99.99,,,-99.99,,2013-03-03 20:52:00,
2013-03-03 16:02:00,37.0,18.0,-100.00,ESE,105,13.0,23.0,45,-99.99,,,-99.99,,2013-03-03 21:02:00,
2013-03-03 16:12:00,37.0,17.0,-100.00,East,100,16.0,23.0,44,-99.99,,,-99.99,,2013-03-03 21:12:00,
2013-03-03 16:22:00,37.0,17.0,-100.00,East,100,16.0,23.0,44,-99.99,,,-99.99,,2013-03-03 21:22:00,
2013-03-03 16:32:00,37.0,17.0,-100.00,ESE,120,8.0,24.0,44,-99.99,,,-99.99,,2013-03-03 21:32:00,
2013-03-03 16:42:00,37.0,17.0,-100.00,East,100,14.0,21.0,44,-99.99,,,-99.99,,2013-03-03 21:42:00,
2013-03-03 16:52:00,36.0,17.0,-100.00,ESE,110,9.0,22.0,44,-99.99,,,-99.99,,2013-03-03 21:52:00,
2013-03-03 17:02:00,36.0,17.0,-100.00,ESE,110,9.0,22.0,44,-99.99,,,-99.99,,2013-03-03 22:02:00,
2013-03-03 17:11:00,36.0,17.0,-100.00,ESE,115,8.0,21.0,45,-99.99,,,-99.99,,2013-03-03 22:11:00,
2013-03-03 17:22:00,36.0,17.0,-100.00,ESE,115,8.0,21.0,45,-99.99,,,-99.99,,2013-03-03 22:22:00,
2013-03-03 17:32:00,35.0,16.0,-100.00,East,85,13.0,20.0,46,-99.99,,,-99.99,,2013-03-03 22:32:00,
2013-03-03 17:42:00,35.0,17.0,-100.00,ESE,120,10.0,19.0,47,-99.99,,,-99.99,,2013-03-03 22:42:00,
2013-03-03 17:53:00,35.0,17.0,-100.00,ESE,120,10.0,19.0,47,-99.99,,,-99.99,,2013-03-03 22:53:00,
2013-03-03 18:02:00,35.0,17.0,-100.00,East,100,9.0,15.0,47,-99.99,,,-99.99,,2013-03-03 23:02:00,
2013-03-03 18:11:00,34.0,17.0,-100.00,ESE,105,9.0,16.0,48,-99.99,,,-99.99,,2013-03-03 23:11:00,
2013-03-03 18:22:00,34.0,17.0,-100.00,ESE,105,9.0,16.0,48,-99.99,,,-99.99,,2013-03-03 23:22:00,
2013-03-03 18:32:00,34.0,17.0,-100.00,ESE,120,7.0,16.0,49,-99.99,,,-99.99,,2013-03-03 23:32:00,
2013-03-03 18:42:00,34.0,17.0,-100.00,ESE,110,7.0,13.0,49,-99.99,,,-99.99,,2013-03-03 23:42:00,
2013-03-03 18:52:00,34.0,17.0,-100.00,ESE,110,7.0,13.0,49,-99.99,,,-99.99,,2013-03-03 23:52:00,
2013-03-03 19:02:00,33.0,16.0,-100.00,ESE,105,13.0,22.0,49,-99.99,,,-99.99,,2013-03-04 00:02:00,
2013-03-03 19:11:00,33.0,16.0,-100.00,ESE,120,8.0,13.0,50,-99.99,,,-99.99,,2013-03-04 00:11:00,
2013-03-03 19:22:00,33.0,16.0,-100.00,ESE,120,8.0,13.0,50,-99.99,,,-99.99,,2013-03-04 00:22:00,
2013-03-03 19:32:00,33.0,16.0,-100.00,ENE,75,4.0,14.0,50,-99.99,,,-99.99,,2013-03-04 00:32:00,
2013-03-03 19:42:00,33.0,16.0,-100.00,ENE,70,5.0,17.0,51,-99.99,,,-99.99,,2013-03-04 00:42:00,
2013-03-03 19:52:00,33.0,16.0,-100.00,ENE,70,5.0,17.0,51,-99.99,,,-99.99,,2013-03-04 00:52:00,
2013-03-03 20:02:00,33.0,16.0,-100.00,East,90,11.0,17.0,51,-99.99,,,-99.99,,2013-03-04 01:02:00,
2013-03-03 20:12:00,32.0,16.0,-100.00,East,100,10.0,15.0,51,-99.99,,,-99.99,,2013-03-04 01:12:00,
2013-03-03 20:22:00,32.0,16.0,-100.00,East,100,10.0,15.0,51,-99.99,,,-99.99,,2013-03-04 01:22:00,
2013-03-03 20:32:00,32.0,16.0,-100.00,East,95,14.0,19.0,51,-99.99,,,-99.99,,2013-03-04 01:32:00,
2013-03-03 20:42:00,32.0,16.0,-100.00,East,90,10.0,19.0,51,-99.99,,,-99.99,,2013-03-04 01:42:00,
2013-03-03 20:52:00,32.0,16.0,-100.00,East,85,5.0,15.0,52,-99.99,,,-99.99,,2013-03-04 01:52:00,
2013-03-03 21:01:00,32.0,16.0,-100.00,East,85,5.0,15.0,52,-99.99,,,-99.99,,2013-03-04 02:01:00,
2013-03-03 21:11:00,32.0,16.0,-100.00,ESE,110,15.0,21.0,52,-99.99,,,-99.99,,2013-03-04 02:11:00,
2013-03-03 21:22:00,32.0,16.0,-100.00,ESE,110,15.0,21.0,52,-99.99,,,-99.99,,2013-03-04 02:22:00,
2013-03-03 21:32:00,32.0,16.0,-100.00,East,100,5.0,18.0,52,-99.99,,,-99.99,,2013-03-04 02:32:00,
2013-03-03 21:42:00,31.0,16.0,-100.00,ESE,120,14.0,24.0,52,-99.99,,,-99.99,,2013-03-04 02:42:00,
2013-03-03 21:52:00,31.0,16.0,-100.00,ESE,120,7.0,16.0,52,-99.99,,,-99.99,,2013-03-04 02:52:00,
2013-03-03 22:02:00,31.0,16.0,-100.00,ESE,120,7.0,16.0,52,-99.99,,,-99.99,,2013-03-04 03:02:00,
2013-03-03 22:12:00,31.0,15.0,-100.00,ESE,110,10.0,14.0,52,-99.99,,,-99.99,,2013-03-04 03:12:00,
2013-03-03 22:22:00,31.0,15.0,-100.00,ESE,110,10.0,14.0,52,-99.99,,,-99.99,,2013-03-04 03:22:00,
2013-03-03 22:32:00,31.0,15.0,-100.00,ESE,115,13.0,23.0,52,-99.99,,,-99.99,,2013-03-04 03:32:00,
2013-03-03 22:42:00,30.0,15.0,-100.00,ESE,115,10.0,26.0,52,-99.99,,,-99.99,,2013-03-04 03:42:00,
2013-03-03 22:52:00,30.0,15.0,-100.00,ESE,115,10.0,26.0,52,-99.99,,,-99.99,,2013-03-04 03:52:00,
2013-03-03 23:02:00,30.0,15.0,-100.00,ESE,110,14.0,22.0,52,-99.99,,,-99.99,,2013-03-04 04:02:00,
2013-03-03 23:11:00,30.0,14.0,-100.00,East,100,16.0,25.0,52,-99.99,,,-99.99,,2013-03-04 04:11:00,
2013-03-03 23:22:00,30.0,14.0,-100.00,East,100,16.0,25.0,52,-99.99,,,-99.99,,2013-03-04 04:22:00,
2013-03-03 23:32:00,30.0,14.0,-100.00,East,100,9.0,22.0,52,-99.99,,,-99.99,,2013-03-04 04:32:00,
2013-03-03 23:42:00,29.0,14.0,-100.00,ESE,120,11.0,19.0,52,-99.99,,,-99.99,,2013-03-04 04:42:00,
2013-03-03 23:52:00,29.0,14.0,-100.00,ESE,120,11.0,19.0,52,-99.99,,,-99.99,,2013-03-04 04:52:00,